Location: Unspecified
(48.8656°N, 0.0000°E)
Time: 08:21:43
(UTC+00:00)

Altair - Pass Details

Date: 25 June 2019
Orbit: 1501 x 1683 km, 47.2° (Epoch: 21 July)

Event Time Altitude Azimuth Distance (km) Brightness Sun altitude
Rises 21:17:47 0° 262° (W) 4,727 10.5 -8.9°
Reaches altitude 10° 21:20:48 10° 262° (W) 3,767 10.0 -9.2°
Maximum altitude 21:30:26 82° 176° (S) 1,634 7.6 -10.2°
Drops below altitude 10° 21:40:27 10° 91° (E) 3,908 9.3 -11.1°
Sets 21:43:38 0° 91° (E) 4,911 9.8 -11.4°
